Location: Aragoneses
(41.0275°N, 4.3847°W)
Time: 04:02:52
(UTC+00:00)

Cosmos 2058 Rocket - Pass Details

Date: 11 December 2025
Orbit: 603 x 633 km, 82.5° (Epoch: 13 January)

Event Time Altitude Azimuth Distance (km) Brightness Sun altitude
Rises 17:41:38 0° 155° (SSE) 2,909 6.5 -9.7°
Reaches altitude 10° 17:44:11 10° 141° (SE) 2,009 5.5 -10.1°
Maximum altitude 17:47:44 24° 88° (E) 1,328 4.2 -10.8°
Enters shadow 17:50:59 12° 38° (NE) 1,922 5.1 -11.3°
